Regional Weather Roundup
Issued by NWS State College, PA

Home | Current Version | Previous Version | Text Only | Print | Product List | Glossary Off
Versions: 1 2 3 4 5 6 7 8 9 10 11 12 13 14 15 16 17 18 19 20 21 22 23 24 25 26 27 28 29 30 31 32 33 34 35 36 37 38 39 40 41 42 43 44 45 46 47 48 49 50

000
ASUS41 KCTP 160103
RWRCTP

REGIONAL WEATHER ROUNDUP
NATIONAL WEATHER SERVICE STATE COLLEGE PA
900 PM EDT MON SEP 15 2014

Note: "fair" indicates few or no clouds below 12,000 feet with no
significant weather and/or obstructions to visibility.

* = STATION THAT DOES NOT REPORT PRECIPITATION /E.G. RAIN...SNOW...ETC/
    THUNDER OR FOG.

PAZ002>004-007>009-013>016-020>023-029>032-160200-
WESTERN PENNSYLVANIA

CITY           SKY/WX    TMP DP  RH WIND       PRES   REMARKS
ERIE           LGT RAIN  60  54  80 N8        30.07S
MEADVILLE      LGT RAIN  57  52  83 NW5       30.08R
FRANKLIN*      CLOUDY    57  50  77 CALM      30.08F
NEW CASTLE     FAIR      58  54  86 CALM      30.07S
BEAVER COUNTY  PTCLDY    59  50  72 CALM      30.06F
BUTLER*        CLOUDY    57  50  77 CALM      30.07F
PITTSBURGH INT CLOUDY    62  50  64 S5        30.05F
PITTSBURGH     MOCLDY    62  48  60 S6        30.05F
INDIANA*       CLEAR     55  52  88 CALM      30.11F
LATROBE        MOCLDY    59  54  82 CALM      30.08F
WASHINGTON CO* MOCLDY    54  52  94 NW3       30.08S
$$

PAZ004>006-010>012-017>019-024>028-033>037-041-042-045-046-049>053-160200-
CENTRAL PENNSYLVANIA

CITY           SKY/WX    TMP DP  RH WIND       PRES   REMARKS
BRADFORD       CLOUDY    55  48  77 CALM      30.09S
DUBOIS         CLOUDY    55  51  86 CALM      30.07F
CLEARFIELD     PTCLDY    56  51  84 CALM      30.08F
JOHNSTOWN      MOCLDY    57  46  66 W5        30.10F
ALTOONA        MOCLDY    58  50  75 S6        30.09F
STATE COLLEGE  CLEAR     59  50  72 CALM      30.09F
WILLIAMSPORT   PTCLDY    59  50  72 N6        30.07F
SELINSGROVE    MOCLDY    54  52  93 CALM      30.09S
FT INDIANTOWN  PTCLDY    56  55  98 NE1       30.10S
CAPITAL CITY   MOCLDY    61  51  70 CALM      30.08F
HARRISBURG     MOCLDY    63  55  75 S3        30.08S
YORK           MOCLDY    54  51  90 SE3       30.09F
$$

PAZ038>040-043-044-047-048-054-055-060>062-067>071-160200-
EASTERN PENNSYLVANIA

CITY           SKY/WX    TMP DP  RH WIND       PRES   REMARKS
SCRANTON       PTCLDY    58  47  66 CALM      30.10R
MOUNT POCONO   MOCLDY    52  46  80 CALM      30.12S
ALLENTOWN      MOCLDY    58  50  75 CALM      30.10F
QUAKERTOWN*    PTCLDY    55  50  82 CALM      30.11S
READING        MOCLDY    62  49  62 S5        30.09S
LANCASTER      PTCLDY    61  50  67 S5        30.10S
COATESVILLE    MOCLDY    59  52  77 CALM      30.11F
POTTSTOWN      MOCLDY    57  51  80 CALM      30.11F
BLUE BELL      PTCLDY    55  52  88 CALM      30.10S
DOYLESTOWN     PTCLDY    56  50  80 CALM      30.10R
WILLOW GROVE   NOT AVBL
NORTH PHILA    PTCLDY    65  48  54 SW3       30.12F
PHILADELPHIA   MOCLDY    67  50  54 S6        30.11F
$$



USA.gov is the U.S. government's official web portal to all federal, state and local government web resources and services.